WA6MEM Weather Reports


time (UTC)temp
F
wind
direction
speed
knots
gust
knots
rain 1hr
in
rain 24hr
in
rain mn
in
humidity
%
barometer
mb
20210723152047 63 256 0.0 0.0 0.00 0.00 0.00 97 1016.0
20210723151627 63 231 0.0 0.0 0.00 0.00 0.00 97 1015.8
20210723151047 63 231 0.0 0.0 0.00 0.00 0.00 97 1015.8
20210723150610 62 231 0.0 0.0 0.00 0.00 0.00 97 1015.8
20210723150048 63 231 0.0 0.0 0.00 0.00 0.00 97 1015.5
20210723145546 63 231 0.0 0.0 0.00 0.00 0.00 97 1015.5
20210723145045 63 231 0.0 0.0 0.00 0.00 0.00 97 1015.5
20210723144616 62 229 0.0 0.0 0.00 0.00 0.00 97 1015.9
20210723144104 62 223 0.0 0.0 0.00 0.00 0.00 97 1015.9
20210723143545 62 208 0.0 0.0 0.00 0.00 0.00 97 1015.9
20210723143109 62 209 0.0 0.0 0.00 0.00 0.00 97 1015.5
20210723142544 62 215 0.0 0.0 0.00 0.00 0.00 97 1015.5
20210723142049 62 215 0.0 0.0 0.00 0.00 0.00 97 1015.5
20210723141614 62 223 0.0 0.0 0.00 0.00 0.00 97 1015.2
20210723141043 62 223 0.0 0.0 0.00 0.00 0.00 97 1015.2
20210723140543 62 224 0.0 0.0 0.00 0.00 0.00 97 1015.2
20210723140149 62 225 0.0 0.0 0.00 0.00 0.00 97 1015.2
20210723135543 62 225 0.0 0.0 0.00 0.00 0.00 97 1015.2
20210723135043 62 225 0.0 0.0 0.00 0.00 0.00 97 1015.2
20210723134743 62 225 0.0 0.0 0.00 0.00 0.00 97 1015.1
20210723134044 62 238 0.0 0.0 0.00 0.00 0.00 97 1015.1
20210723133543 62 183 0.0 0.0 0.00 0.00 0.00 97 1015.1
20210723133121 62 182 0.0 0.0 0.00 0.00 0.00 97 1014.8
20210723132546 62 204 0.0 0.0 0.00 0.00 0.00 97 1014.8
20210723132041 62 204 0.0 0.0 0.00 0.00 0.00 97 1014.8
20210723131636 62 204 0.0 0.0 0.00 0.00 0.00 97 1014.6
20210723131040 62 204 0.0 0.0 0.00 0.00 0.00 97 1014.6
20210723130540 62 204 0.0 0.0 0.00 0.00 0.00 97 1014.6
20210723130106 62 204 0.0 0.0 0.00 0.00 0.00 97 1014.6
20210723125545 62 204 0.0 0.0 0.00 0.00 0.00 97 1014.6
20210723125051 62 204 0.0 0.0 0.00 0.00 0.00 97 1014.6
20210723124612 62 204 0.0 0.0 0.00 0.00 0.00 97 1014.6
20210723124040 62 204 0.0 0.0 0.00 0.00 0.00 97 1014.6
20210723123539 62 175 0.0 0.0 0.00 0.00 0.00 97 1014.6
20210723123100 62 174 0.0 0.0 0.00 0.00 0.00 97 1014.5
20210723122559 62 176 0.0 0.0 0.00 0.00 0.00 97 1014.5
20210723122039 62 119 0.0 0.0 0.00 0.00 0.00 97 1014.5
20210723121649 62 117 0.0 0.0 0.00 0.00 0.00 97 1014.1
20210723121038 62 92 0.0 0.0 0.00 0.00 0.00 97 1014.1
20210723120542 62 99 0.0 0.0 0.00 0.00 0.00 97 1014.1
20210723120158 62 85 0.0 0.0 0.00 0.00 0.00 97 1014.2
20210723115550 62 87 0.0 0.0 0.00 0.00 0.00 97 1014.2
20210723115046 62 96 0.0 0.0 0.00 0.00 0.00 97 1014.2
20210723114704 62 96 0.0 0.0 0.00 0.00 0.00 97 1014.3
20210723114037 61 142 0.0 0.0 0.00 0.00 0.00 97 1014.3
20210723113538 61 146 0.0 0.0 0.00 0.00 0.00 97 1014.3
20210723113138 61 115 0.0 0.0 0.00 0.00 0.00 96 1014.1
20210723112540 61 150 0.0 0.0 0.00 0.00 0.00 96 1014.1
20210723112036 61 150 0.0 0.0 0.00 0.00 0.00 96 1014.1
20210723111549 61 150 0.0 0.0 0.00 0.00 0.00 96 1014.1
20210723111041 61 150 0.0 0.0 0.00 0.00 0.00 96 1014.1
20210723110535 61 150 0.0 0.0 0.00 0.00 0.00 96 1014.1
20210723110117 61 150 0.0 0.0 0.00 0.00 0.00 97 1014.1
20210723105543 61 150 0.0 0.0 0.00 0.00 0.00 96 1014.1
20210723105045 61 150 0.0 0.0 0.00 0.00 0.00 97 1014.1
20210723104610 61 150 0.0 0.0 0.00 0.00 0.00 96 1014.1
20210723104036 61 150 0.0 0.0 0.00 0.00 0.00 96 1014.1
20210723103534 61 150 0.0 0.0 0.00 0.00 0.00 96 1014.1
20210723103104 61 150 0.0 0.0 0.00 0.00 0.00 96 1014.0
20210723102536 61 150 0.0 0.0 0.00 0.00 0.00 96 1014.0
20210723102033 62 101 0.0 0.0 0.00 0.00 0.00 96 1014.0
20210723101606 62 101 0.0 0.0 0.00 0.00 0.00 96 1014.0
20210723101045 62 101 0.0 0.0 0.00 0.00 0.00 96 1014.0
20210723100532 62 141 0.0 0.0 0.00 0.00 0.00 96 1014.0
20210723100146 62 123 0.0 0.0 0.00 0.00 0.00 96 1014.1
20210723095532 62 123 0.0 0.0 0.00 0.00 0.00 96 1014.1
20210723095038 62 123 0.0 0.0 0.00 0.00 0.00 96 1014.1
20210723094540 62 123 0.0 0.0 0.00 0.00 0.00 96 1014.0
20210723094046 62 123 0.0 0.0 0.00 0.00 0.00 96 1014.0
20210723093533 62 115 0.0 0.0 0.00 0.00 0.00 96 1014.0
20210723093202 62 71 0.0 0.0 0.00 0.00 0.00 96 1014.0
20210723092531 62 46 0.0 0.0 0.00 0.00 0.00 96 1014.0
20210723092035 62 30 0.0 0.0 0.00 0.00 0.00 96 1014.0
20210723091638 62 82 0.0 0.0 0.00 0.00 0.00 96 1014.0
20210723091037 62 46 0.0 0.0 0.00 0.00 0.00 96 1014.0
20210723090534 62 28 0.0 0.0 0.00 0.00 0.00 96 1014.0
20210723090108 62 61 0.0 0.0 0.00 0.00 0.00 96 1013.8
20210723085529 62 55 0.0 0.0 0.00 0.00 0.00 96 1013.8
20210723085033 62 50 0.0 0.0 0.00 0.00 0.00 96 1013.8
20210723084624 62 42 0.0 0.0 0.00 0.00 0.00 96 1013.8
20210723084028 62 61 0.0 0.0 0.00 0.00 0.00 96 1013.8
20210723083551 62 61 0.0 0.0 0.00 0.00 0.00 96 1013.8
20210723083101 62 41 0.0 0.0 0.00 0.00 0.00 96 1014.0
20210723082528 62 49 0.0 0.0 0.00 0.00 0.00 96 1014.0
20210723082039 62 30 0.0 0.0 0.00 0.00 0.00 96 1014.0
20210723081605 62 63 0.0 0.0 0.00 0.00 0.00 96 1014.1
20210723081033 62 39 0.0 0.0 0.00 0.00 0.00 96 1014.1
20210723080525 62 80 0.0 0.0 0.00 0.00 0.00 96 1014.1
20210723080053 62 32 0.9 0.0 0.00 0.00 0.00 96 1014.6
20210723075525 62 19 0.9 0.0 0.00 0.00 0.00 96 1014.6
20210723075027 62 76 0.0 0.0 0.00 0.00 0.00 96 1014.6
20210723074610 62 84 0.0 0.0 0.00 0.00 0.00 96 1014.6
20210723074024 62 63 0.0 0.0 0.00 0.00 0.00 95 1014.6
20210723073526 62 86 0.0 0.0 0.00 0.00 0.00 95 1014.6
20210723073046 62 77 0.0 0.0 0.00 0.00 0.00 95 1014.6
20210723072523 62 48 0.0 0.0 0.00 0.00 0.00 95 1014.6
20210723072028 62 101 0.0 0.0 0.00 0.00 0.00 95 1014.6
20210723071606 62 101 0.0 0.0 0.00 0.00 0.00 95 1014.6
20210723071026 62 144 0.0 0.0 0.00 0.00 0.00 95 1014.6
20210723070522 62 86 0.0 0.0 0.00 0.00 0.00 95 1014.6
20210723070041 62 42 0.0 0.0 0.00 0.00 0.00 95 1014.6
20210723065521 62 57 0.0 0.0 0.00 0.00 0.00 95 1014.6
20210723065021 62 40 0.0 0.0 0.00 0.00 0.00 95 1014.6
20210723064549 62 53 0.0 0.0 0.00 0.00 0.00 95 1014.6
20210723064024 62 32 0.9 0.0 0.00 0.00 0.00 95 1014.6
20210723063521 62 46 0.9 0.0 0.00 0.00 0.00 95 1014.6
20210723063027 62 44 0.9 0.0 0.00 0.00 0.00 95 1014.6
20210723062520 62 29 1.7 0.0 0.00 0.00 0.00 95 1014.6
20210723062022 62 70 0.9 0.0 0.00 0.00 0.00 95 1014.6
20210723061557 62 54 0.9 0.0 0.00 0.00 0.00 95 1014.8
20210723061020 62 40 0.0 0.0 0.00 0.00 0.00 95 1014.8
20210723060528 62 85 0.0 0.0 0.00 0.00 0.00 94 1014.8
20210723060052 62 52 0.0 0.0 0.00 0.00 0.00 94 1014.9
20210723055519 62 84 0.9 0.0 0.00 0.00 0.00 94 1014.9
20210723055022 62 24 0.9 0.0 0.00 0.00 0.00 94 1014.9
20210723054544 62 36 0.0 0.0 0.00 0.00 0.00 94 1014.9
20210723054019 62 34 0.0 0.0 0.00 0.00 0.00 94 1014.9
20210723053519 62 59 0.0 0.0 0.00 0.00 0.00 94 1014.9
20210723053158 62 53 0.0 0.0 0.00 0.00 0.00 94 1015.0
20210723052519 62 46 0.0 0.0 0.00 0.00 0.00 93 1015.0
20210723052019 63 46 0.0 0.0 0.00 0.00 0.00 93 1015.0
20210723051527 63 46 0.0 0.0 0.00 0.00 0.00 93 1015.2
20210723051018 63 28 0.0 0.0 0.00 0.00 0.00 93 1015.2
20210723050517 63 47 0.0 0.0 0.00 0.00 0.00 93 1015.2
20210723050027 63 44 0.0 0.0 0.00 0.00 0.00 93 1015.2
20210723045517 63 12 0.0 0.0 0.00 0.00 0.00 93 1015.2
20210723045017 63 12 0.0 0.0 0.00 0.00 0.00 93 1015.2
20210723044547 63 12 0.0 0.0 0.00 0.00 0.00 93 1015.1
20210723044017 63 282 0.0 0.0 0.00 0.00 0.00 93 1015.1
20210723043522 63 108 0.0 0.0 0.00 0.00 0.00 93 1015.1
20210723043040 63 108 0.0 0.0 0.00 0.00 0.00 93 1014.7
20210723042515 63 115 0.0 0.0 0.00 0.00 0.00 93 1014.7
20210723042021 63 53 0.0 0.0 0.00 0.00 0.00 93 1014.7
20210723041533 63 219 0.0 0.0 0.00 0.00 0.00 92 1014.7
20210723041025 63 214 0.0 0.0 0.00 0.00 0.00 92 1014.7
20210723040544 63 214 0.0 0.0 0.00 0.00 0.00 92 1014.7
20210723040020 63 215 0.0 0.0 0.00 0.00 0.00 91 1014.4
20210723035514 64 214 0.0 0.0 0.00 0.00 0.00 91 1014.4
20210723035018 64 214 0.0 0.0 0.00 0.00 0.00 91 1014.4
20210723034514 64 214 0.0 0.0 0.00 0.00 0.00 91 1014.2
20210723034017 64 214 0.0 0.0 0.00 0.00 0.00 90 1014.2
20210723033514 64 212 0.0 0.0 0.00 0.00 0.00 90 1014.2
20210723033017 64 210 0.0 0.0 0.00 0.00 0.00 90 1013.9
20210723032513 65 210 0.0 0.0 0.00 0.00 0.00 89 1013.9
20210723032013 65 210 0.0 0.0 0.00 0.00 0.00 89 1013.9
20210723031515 65 211 0.0 0.0 0.00 0.00 0.00 88 1013.7
20210723031019 65 210 0.0 0.0 0.00 0.00 0.00 87 1013.7
20210723030517 66 211 0.0 0.0 0.00 0.00 0.00 87 1013.7
20210723030050 66 210 0.0 0.0 0.00 0.00 0.00 86 1013.4
20210723025531 66 211 0.0 0.0 0.00 0.00 0.00 85 1013.4
20210723025011 67 211 0.0 0.0 0.00 0.00 0.00 84 1013.4
20210723024511 67 211 0.0 0.0 0.00 0.00 0.00 83 1013.2
20210723024017 68 210 0.0 0.0 0.00 0.00 0.00 83 1013.2
20210723023515 69 211 0.0 0.0 0.00 0.00 0.00 81 1013.2
20210723023027 69 145 0.0 0.0 0.00 0.00 0.00 81 1012.9
20210723022516 69 92 0.0 0.0 0.00 0.00 0.00 80 1012.9
20210723022016 70 40 0.0 0.0 0.00 0.00 0.00 80 1012.9
20210723021551 70 103 0.0 0.0 0.00 0.00 0.00 80 1012.8
20210723021010 70 17 0.0 0.0 0.00 0.00 0.00 80 1012.8
20210723020509 70 74 0.0 0.0 0.00 0.00 0.00 80 1012.8
20210723020011 70 30 0.0 0.0 0.00 0.00 0.00 81 1012.7
20210723015509 70 227 0.0 0.0 0.00 0.00 0.00 81 1012.7
20210723015009 70 227 0.0 0.0 0.00 0.00 0.00 80 1012.7
20210723014522 70 223 0.0 0.0 0.00 0.00 0.00 80 1012.6
20210723014014 71 215 0.0 0.0 0.00 0.00 0.00 79 1012.6
20210723013508 71 209 0.0 0.0 0.00 0.00 0.00 78 1012.6
20210723013009 72 206 0.0 0.0 0.00 0.00 0.00 78 1012.6
20210723012511 71 225 0.0 0.0 0.00 0.00 0.00 79 1012.6
20210723012008 71 298 0.0 0.0 0.00 0.00 0.00 80 1012.6
20210723011522 71 298 0.0 0.0 0.00 0.00 0.00 80 1012.8
20210723011008 71 239 0.0 0.0 0.00 0.00 0.00 78 1012.8
20210723010523 71 256 0.0 0.0 0.00 0.00 0.00 78 1012.8
20210723010034 72 210 0.0 0.0 0.00 0.00 0.00 76 1012.4
20210723005508 73 198 0.0 0.0 0.00 0.00 0.00 76 1012.4
20210723005007 73 159 0.9 0.0 0.00 0.00 0.00 76 1012.4
20210723004514 73 126 0.0 0.0 0.00 0.00 0.00 75 1012.6
20210723004007 72 40 0.0 0.0 0.00 0.00 0.00 77 1012.6
20210723003511 72 255 0.0 0.0 0.00 0.00 0.00 78 1012.6
20210723003021 72 241 0.0 0.0 0.00 0.00 0.00 79 1012.7
20210723002523 72 207 0.0 0.0 0.00 0.00 0.00 79 1012.7
20210723002006 72 215 0.0 0.0 0.00 0.00 0.00 79 1012.7
20210723001540 72 215 0.0 0.0 0.00 0.00 0.00 77 1012.4
20210723001006 72 212 0.0 0.0 0.00 0.00 0.00 77 1012.4
20210723000511 72 259 0.0 0.0 0.00 0.00 0.00 78 1012.4
20210723000006 72 230 0.0 0.0 0.00 0.00 0.00 79 1012.6
20210722235506 72 200 0.0 0.0 0.00 0.00 0.00 79 1012.6
20210722235008 71 207 0.0 0.0 0.00 0.00 0.00 79 1012.6
20210722234523 72 213 0.0 0.0 0.00 0.00 0.00 79 1012.6
20210722234010 72 200 0.0 0.0 0.00 0.00 0.00 78 1012.6
20210722233516 72 232 0.0 0.0 0.00 0.00 0.00 79 1012.6
20210722233036 72 189 0.0 0.0 0.00 0.00 0.00 79 1012.8
20210722232509 71 186 0.0 0.0 0.00 0.00 0.00 80 1012.8
20210722232005 71 223 0.0 0.0 0.00 0.00 0.00 80 1012.8
20210722231507 71 229 0.0 0.0 0.00 0.00 0.00 79 1012.7
20210722231005 71 192 0.0 0.0 0.00 0.00 0.00 80 1012.7
20210722230504 72 191 0.0 0.0 0.00 0.00 0.00 79 1012.7
20210722230008 72 196 0.0 0.0 0.00 0.00 0.00 78 1012.4
20210722225504 72 242 0.0 0.0 0.00 0.00 0.00 78 1012.4
20210722225006 72 211 0.0 0.0 0.00 0.00 0.00 78 1012.4
20210722224510 72 244 0.9 0.0 0.00 0.00 0.00 77 1012.7
20210722224007 73 223 0.9 0.0 0.00 0.00 0.00 77 1012.7
20210722223504 73 242 0.9 0.0 0.00 0.00 0.00 78 1012.7
20210722223004 73 180 0.0 0.0 0.00 0.00 0.00 77 1012.6
20210722222507 74 213 0.0 0.0 0.00 0.00 0.00 75 1012.6
20210722222008 75 218 0.0 0.0 0.00 0.00 0.00 73 1012.6
20210722221504 75 190 0.9 0.0 0.00 0.00 0.00 74 1012.8
20210722221000 75 238 0.9 0.0 0.00 0.00 0.00 75 1012.8
20210722220113 74 229 0.0 0.0 0.00 0.00 0.00 74 1012.8
20210722215600 75 207 0.0 0.0 0.00 0.00 0.00 74 1012.8
20210722215100 74 221 0.0 0.0 0.00 0.00 0.00 74 1012.8
20210722214812 74 186 0.0 0.0 0.00 0.00 0.00 74 1012.8
20210722214113 74 233 0.0 0.0 0.00 0.00 0.00 75 1012.8
20210722213604 74 183 0.0 0.0 0.00 0.00 0.00 75 1012.8
20210722213146 74 236 0.9 0.0 0.00 0.00 0.00 75 1012.9
20210722212559 74 236 1.7 0.0 0.00 0.00 0.00 75 1012.9
20210722212058 74 129 1.7 0.0 0.00 0.00 0.00 74 1012.9
20210722211723 74 241 0.9 0.0 0.00 0.00 0.00 75 1013.2
20210722211059 74 239 0.9 0.0 0.00 0.00 0.00 74 1013.2
20210722210601 74 202 0.0 0.0 0.00 0.00 0.00 76 1013.2
20210722210114 74 202 0.0 0.0 0.00 0.00 0.00 77 1013.3
20210722205556 73 259 0.9 0.0 0.00 0.00 0.00 77 1013.3
20210722205121 72 229 0.9 0.0 0.00 0.00 0.00 77 1013.3
20210722204746 72 161 0.9 0.0 0.00 0.00 0.00 77 1013.3
20210722204107 72 237 0.9 0.0 0.00 0.00 0.00 77 1013.3
20210722203613 73 216 0.9 0.0 0.00 0.00 0.00 77 1013.3
20210722203157 73 225 0.9 0.0 0.00 0.00 0.00 76 1013.2
20210722202554 73 213 0.9 0.0 0.00 0.00 0.00 76 1013.2
20210722202053 72 244 0.0 0.0 0.00 0.00 0.00 77 1013.2
20210722201727 72 221 0.0 0.0 0.00 0.00 0.00 77 1013.3
20210722201110 72 223 0.9 0.0 0.00 0.00 0.00 78 1013.3
20210722200600 72 195 0.9 0.0 0.00 0.00 0.00 77 1013.3
20210722200240 71 238 0.9 0.0 0.00 0.00 0.00 78 1013.3
20210722195553 72 234 1.7 0.0 0.00 0.00 0.00 77 1013.3
20210722195052 72 209 1.7 0.0 0.00 0.00 0.00 77 1013.3
20210722194638 73 207 0.9 0.0 0.00 0.00 0.00 75 1013.3
20210722194051 72 234 0.9 0.0 0.00 0.00 0.00 77 1013.3
20210722193551 72 159 0.0 0.0 0.00 0.00 0.00 77 1013.3
20210722193216 72 219 0.0 0.0 0.00 0.00 0.00 77 1013.3
20210722192550 72 244 0.9 0.0 0.00 0.00 0.00 78 1013.3
20210722192048 72 233 0.9 0.0 0.00 0.00 0.00 78 1013.3
20210722191653 72 192 0.0 0.0 0.00 0.00 0.00 78 1013.2
20210722191048 71 239 0.0 0.0 0.00 0.00 0.00 79 1013.2
20210722190551 71 225 0.9 0.0 0.00 0.00 0.00 80 1013.2
20210722190117 71 183 0.9 0.0 0.00 0.00 0.00 79 1013.2
20210722185548 71 217 0.9 0.0 0.00 0.00 0.00 78 1013.2
20210722185051 72 242 0.9 0.0 0.00 0.00 0.00 79 1013.2
20210722184648 72 232 0.9 0.0 0.00 0.00 0.00 78 1013.2
20210722184114 71 235 0.0 0.0 0.00 0.00 0.00 80 1013.2
20210722183609 70 234 0.9 0.0 0.00 0.00 0.00 81 1013.2
20210722183134 70 230 0.9 0.0 0.00 0.00 0.00 82 1013.4
20210722182546 69 230 0.0 0.0 0.00 0.00 0.00 83 1013.4
20210722182103 69 213 0.0 0.0 0.00 0.00 0.00 84 1013.4
20210722181614 69 254 0.0 0.0 0.00 0.00 0.00 84 1013.1
20210722181103 69 215 0.9 0.0 0.00 0.00 0.00 82 1013.1
20210722180603 70 183 0.9 0.0 0.00 0.00 0.00 80 1013.1
20210722180058 70 219 0.9 0.0 0.00 0.00 0.00 81 1012.8
20210722175544 70 239 0.9 0.0 0.00 0.00 0.00 80 1012.8
20210722175053 70 232 0.9 0.0 0.00 0.00 0.00 81 1012.8
20210722174604 70 227 0.9 0.0 0.00 0.00 0.00 81 1012.7
20210722174043 71 192 0.9 0.0 0.00 0.00 0.00 81 1012.7
20210722173612 71 191 0.9 0.0 0.00 0.00 0.00 81 1012.7
20210722173124 71 251 0.0 0.0 0.00 0.00 0.00 80 1012.7
20210722172547 71 219 0.0 0.0 0.00 0.00 0.00 81 1012.7
20210722172102 71 243 0.0 0.0 0.00 0.00 0.00 82 1012.7
20210722171657 71 217 0.0 0.0 0.00 0.00 0.00 82 1012.6
20210722171040 70 195 0.0 0.0 0.00 0.00 0.00 83 1012.6
20210722170545 70 258 0.0 0.0 0.00 0.00 0.00 85 1012.6
20210722170122 69 227 0.0 0.0 0.00 0.00 0.00 86 1012.7
20210722165539 69 210 0.0 0.0 0.00 0.00 0.00 86 1012.7
20210722165040 69 190 0.9 0.0 0.00 0.00 0.00 86 1012.7
20210722164606 69 183 0.0 0.0 0.00 0.00 0.00 87 1012.6
20210722164035 69 251 0.0 0.0 0.00 0.00 0.00 86 1012.6
20210722163538 69 205 0.9 0.0 0.00 0.00 0.00 86 1012.6
20210722163154 68 232 0.9 0.0 0.00 0.00 0.00 87 1012.5
20210722162533 68 227 0.0 0.0 0.00 0.00 0.00 87 1012.5
20210722162033 68 197 0.9 0.0 0.00 0.00 0.00 87 1012.5
20210722161548 68 244 0.9 0.0 0.00 0.00 0.00 88 1012.2
20210722161038 68 211 0.0 0.0 0.00 0.00 0.00 89 1012.2
20210722160538 68 236 0.0 0.0 0.00 0.00 0.00 89 1012.2
20210722160109 68 234 0.0 0.0 0.00 0.00 0.00 89 1012.1
20210722155530 67 252 0.0 0.0 0.00 0.00 0.00 91 1012.1
20210722155036 67 213 0.0 0.0 0.00 0.00 0.00 90 1012.1
20210722154602 67 196 0.0 0.0 0.00 0.00 0.00 91 1012.1
20210722154029 66 225 0.0 0.0 0.00 0.00 0.00 91 1012.1
20210722153530 66 227 0.0 0.0 0.00 0.00 0.00 92 1012.1
20210722153056 66 205 0.0 0.0 0.00 0.00 0.00 92 1011.8
20210722152527 66 227 0.0 0.0 0.00 0.00 0.00 92 1011.8